Time,TemperatureF,DewpointF,PressureIn,WindDirection,WindDirectionDegrees,WindSpeedMPH,WindSpeedGustMPH,Humidity,HourlyPrecipIn,Conditions,Clouds,dailyrainin,SoftwareType,DateUTC
2013-09-26 00:00:00,-90.0,-99.9,29.38,ESE,106,0.0,0.0,255,0.00,,,0.00,Wunderground v.1.15,2013-09-26 05:00:00,
2013-09-26 00:06:00,65.4,60.1,29.38,ESE,106,0.0,0.0,83,0.00,,,0.00,Wunderground v.1.15,2013-09-26 05:06:00,
2013-09-26 00:25:00,65.7,60.1,29.38,ESE,106,0.0,0.0,82,0.00,,,0.00,Wunderground v.1.15,2013-09-26 05:25:00,
2013-09-26 00:31:00,65.7,60.1,29.38,ESE,106,0.0,0.0,82,0.00,,,0.00,Wunderground v.1.15,2013-09-26 05:31:00,
2013-09-26 00:37:00,65.7,60.1,29.38,ESE,106,0.0,0.0,82,0.00,,,0.00,Wunderground v.1.15,2013-09-26 05:37:00,
2013-09-26 00:42:00,65.6,60.0,29.38,ESE,106,0.0,0.0,82,0.00,,,0.00,Wunderground v.1.15,2013-09-26 05:42:00,
2013-09-26 00:47:00,65.6,60.0,29.38,ESE,106,0.0,0.0,82,0.00,,,0.00,Wunderground v.1.15,2013-09-26 05:47:00,
2013-09-26 00:53:00,65.6,60.0,29.38,ESE,106,0.0,0.0,82,0.00,,,0.00,Wunderground v.1.15,2013-09-26 05:53:00,
2013-09-26 00:58:00,65.4,59.8,29.39,ESE,106,0.0,0.0,82,0.00,,,0.00,Wunderground v.1.15,2013-09-26 05:58:00,
2013-09-26 01:03:00,65.2,59.9,29.39,ESE,106,0.0,0.0,83,0.00,,,0.00,Wunderground v.1.15,2013-09-26 06:03:00,
2013-09-26 01:09:00,65.0,60.0,29.39,ESE,106,0.0,0.0,84,0.00,,,0.00,Wunderground v.1.15,2013-09-26 06:09:00,
2013-09-26 01:14:00,64.9,59.9,29.39,ESE,106,0.0,0.0,84,0.00,,,0.00,Wunderground v.1.15,2013-09-26 06:14:00,
2013-09-26 01:19:00,64.6,60.0,29.39,ESE,106,0.0,0.0,85,0.00,,,0.00,Wunderground v.1.15,2013-09-26 06:19:00,
2013-09-26 01:25:00,64.4,59.8,29.39,ESE,106,0.0,0.0,85,0.00,,,0.00,Wunderground v.1.15,2013-09-26 06:25:00,
2013-09-26 01:31:00,64.2,59.9,29.39,ESE,106,0.0,0.0,86,0.00,,,0.00,Wunderground v.1.15,2013-09-26 06:31:00,
2013-09-26 01:37:00,64.0,59.7,29.40,ESE,106,0.0,0.0,86,0.00,,,0.00,Wunderground v.1.15,2013-09-26 06:37:00,
2013-09-26 01:42:00,63.8,59.5,29.40,ESE,106,0.0,0.0,86,0.00,,,0.00,Wunderground v.1.15,2013-09-26 06:42:00,
2013-09-26 01:52:00,63.4,59.5,29.40,ESE,106,0.0,0.0,87,0.00,,,0.00,Wunderground v.1.15,2013-09-26 06:52:00,
2013-09-26 01:58:00,63.2,59.3,29.40,ESE,106,0.0,0.0,87,0.00,,,0.00,Wunderground v.1.15,2013-09-26 06:58:00,
2013-09-26 02:03:00,63.0,59.4,29.41,ESE,106,0.0,0.0,88,0.00,,,0.00,Wunderground v.1.15,2013-09-26 07:03:00,
2013-09-26 02:09:00,62.8,59.2,29.41,ESE,106,0.0,0.0,88,0.00,,,0.00,Wunderground v.1.15,2013-09-26 07:09:00,
2013-09-26 02:14:00,62.7,59.1,29.41,ESE,106,0.0,0.0,88,0.00,,,0.00,Wunderground v.1.15,2013-09-26 07:14:00,
2013-09-26 02:19:00,62.6,59.0,29.41,ESE,106,0.0,0.0,88,0.00,,,0.00,Wunderground v.1.15,2013-09-26 07:19:00,
2013-09-26 02:25:00,62.6,59.3,29.41,ESE,106,0.0,0.0,89,0.00,,,0.00,Wunderground v.1.15,2013-09-26 07:25:00,
2013-09-26 02:30:00,62.5,59.2,29.41,ESE,106,0.0,0.0,89,0.00,,,0.00,Wunderground v.1.15,2013-09-26 07:30:00,
2013-09-26 02:35:00,62.4,58.8,29.41,ESE,106,0.0,0.0,88,0.00,,,0.00,Wunderground v.1.15,2013-09-26 07:35:00,
2013-09-26 02:40:00,62.3,59.0,29.41,ESE,106,0.0,0.0,89,0.00,,,0.00,Wunderground v.1.15,2013-09-26 07:40:00,
2013-09-26 02:46:00,62.3,59.0,29.41,ESE,106,0.0,1.0,89,0.00,,,0.00,Wunderground v.1.15,2013-09-26 07:46:00,
2013-09-26 02:51:00,62.2,58.6,29.41,ESE,106,0.0,2.0,88,0.00,,,0.00,Wunderground v.1.15,2013-09-26 07:51:00,
2013-09-26 02:57:00,62.1,58.5,29.41,ESE,106,0.0,2.0,88,0.00,,,0.00,Wunderground v.1.15,2013-09-26 07:57:00,
2013-09-26 03:03:00,62.0,58.4,29.41,ESE,106,0.0,0.0,88,0.00,,,0.00,Wunderground v.1.15,2013-09-26 08:03:00,
2013-09-26 03:08:00,61.9,58.3,29.41,ESE,106,0.0,0.0,88,0.00,,,0.00,Wunderground v.1.15,2013-09-26 08:08:00,
2013-09-26 03:14:00,61.8,58.2,29.41,ESE,106,0.0,0.0,88,0.00,,,0.00,Wunderground v.1.15,2013-09-26 08:14:00,
2013-09-26 03:19:00,61.7,58.1,29.41,ESE,106,0.0,0.0,88,0.00,,,0.00,Wunderground v.1.15,2013-09-26 08:19:00,
2013-09-26 03:24:00,61.6,58.0,29.41,ESE,106,0.0,0.0,88,0.00,,,0.00,Wunderground v.1.15,2013-09-26 08:24:00,
2013-09-26 03:33:00,61.5,57.9,29.41,ESE,106,0.0,0.0,88,0.00,,,0.00,Wunderground v.1.15,2013-09-26 08:33:00,
2013-09-26 03:39:00,61.5,57.9,29.41,ESE,106,0.0,0.0,88,0.00,,,0.00,Wunderground v.1.15,2013-09-26 08:39:00,
2013-09-26 03:44:00,61.4,57.8,29.41,ESE,106,0.0,0.0,88,0.00,,,0.00,Wunderground v.1.15,2013-09-26 08:44:00,
2013-09-26 03:49:00,61.4,57.8,29.41,ESE,106,0.0,0.0,88,0.00,,,0.00,Wunderground v.1.15,2013-09-26 08:49:00,
2013-09-26 03:55:00,61.4,57.8,29.41,ESE,106,0.0,0.0,88,0.00,,,0.00,Wunderground v.1.15,2013-09-26 08:55:00,
2013-09-26 04:00:00,61.4,57.8,29.41,ESE,102,0.0,0.0,88,0.00,,,0.00,Wunderground v.1.15,2013-09-26 09:00:00,
2013-09-26 04:06:00,61.3,57.7,29.41,ESE,106,0.0,0.0,88,0.00,,,0.00,Wunderground v.1.15,2013-09-26 09:06:00,
2013-09-26 04:11:00,61.3,57.7,29.42,ESE,106,0.0,0.0,88,0.00,,,0.00,Wunderground v.1.15,2013-09-26 09:11:00,
2013-09-26 04:16:00,61.3,57.7,29.42,ESE,106,0.0,0.0,88,0.00,,,0.00,Wunderground v.1.15,2013-09-26 09:16:00,
2013-09-26 04:22:00,61.3,57.7,29.42,ESE,106,0.0,4.0,88,0.00,,,0.00,Wunderground v.1.15,2013-09-26 09:22:00,
2013-09-26 04:27:00,61.2,57.3,29.42,ESE,106,0.0,4.0,87,0.00,,,0.00,Wunderground v.1.15,2013-09-26 09:27:00,
2013-09-26 04:32:00,61.2,57.3,29.42,ESE,106,0.0,0.0,87,0.00,,,0.00,Wunderground v.1.15,2013-09-26 09:32:00,
2013-09-26 04:38:00,61.1,57.2,29.42,ESE,106,0.0,0.0,87,0.00,,,0.00,Wunderground v.1.15,2013-09-26 09:38:00,
2013-09-26 04:43:00,61.1,57.2,29.42,ESE,106,0.0,0.0,87,0.00,,,0.00,Wunderground v.1.15,2013-09-26 09:43:00,
2013-09-26 04:48:00,60.9,57.3,29.42,ESE,106,0.0,0.0,88,0.00,,,0.00,Wunderground v.1.15,2013-09-26 09:48:00,
2013-09-26 04:54:00,60.8,57.2,29.42,ESE,106,0.0,0.0,88,0.00,,,0.00,Wunderground v.1.15,2013-09-26 09:54:00,
2013-09-26 04:59:00,60.7,57.1,29.43,ESE,106,0.0,0.0,88,0.00,,,0.00,Wunderground v.1.15,2013-09-26 09:59:00,
2013-09-26 05:04:00,60.6,57.0,29.43,ESE,106,0.0,2.0,88,0.00,,,0.00,Wunderground v.1.15,2013-09-26 10:04:00,
2013-09-26 05:10:00,60.5,56.9,29.43,ESE,106,0.0,0.0,88,0.00,,,0.00,Wunderground v.1.15,2013-09-26 10:10:00,
2013-09-26 05:15:00,60.4,56.8,29.43,ESE,106,0.0,0.0,88,0.00,,,0.00,Wunderground v.1.15,2013-09-26 10:15:00,
2013-09-26 05:20:00,60.3,57.0,29.43,ESE,106,0.0,0.0,89,0.00,,,0.00,Wunderground v.1.15,2013-09-26 10:20:00,
2013-09-26 05:26:00,60.2,56.9,29.43,ESE,106,0.0,0.0,89,0.00,,,0.00,Wunderground v.1.15,2013-09-26 10:26:00,
2013-09-26 05:31:00,60.1,56.8,29.43,ESE,106,0.0,0.0,89,0.00,,,0.00,Wunderground v.1.15,2013-09-26 10:31:00,
2013-09-26 05:37:00,59.9,56.6,29.43,ESE,106,0.0,0.0,89,0.00,,,0.00,Wunderground v.1.15,2013-09-26 10:37:00,
2013-09-26 05:43:00,59.8,56.6,29.43,ESE,106,0.0,1.0,89,0.00,,,0.00,Wunderground v.1.15,2013-09-26 10:43:00,
2013-09-26 05:49:00,59.8,56.6,29.44,ESE,106,0.0,1.0,89,0.00,,,0.00,Wunderground v.1.15,2013-09-26 10:49:00,
2013-09-26 05:54:00,59.8,56.6,29.44,ESE,106,0.0,0.0,89,0.00,,,0.00,Wunderground v.1.15,2013-09-26 10:54:00,
2013-09-26 06:00:00,59.7,56.8,29.44,ESE,106,0.0,0.0,90,0.00,,,0.00,Wunderground v.1.15,2013-09-26 11:00:00,
2013-09-26 06:06:00,59.6,56.4,29.44,ESE,106,0.0,0.0,89,0.00,,,0.00,Wunderground v.1.15,2013-09-26 11:06:00,
2013-09-26 06:12:00,59.5,56.3,29.44,ESE,106,0.0,0.0,89,0.00,,,0.00,Wunderground v.1.15,2013-09-26 11:12:00,
2013-09-26 06:17:00,59.5,56.6,29.44,ESE,106,0.0,0.0,90,0.00,,,0.00,Wunderground v.1.15,2013-09-26 11:17:00,
2013-09-26 06:36:00,59.2,56.3,29.45,ESE,106,0.0,0.0,90,0.00,,,0.00,Wunderground v.1.15,2013-09-26 11:36:00,
2013-09-26 06:41:00,59.2,56.3,29.45,ESE,106,0.0,0.0,90,0.00,,,0.00,Wunderground v.1.15,2013-09-26 11:41:00,
2013-09-26 06:47:00,59.2,56.3,29.45,ESE,106,0.0,0.0,90,0.00,,,0.00,Wunderground v.1.15,2013-09-26 11:47:00,
2013-09-26 06:52:00,59.1,56.5,29.45,ESE,106,0.0,0.0,91,0.00,,,0.00,Wunderground v.1.15,2013-09-26 11:52:00,
2013-09-26 06:57:00,59.1,56.2,29.45,ESE,106,0.0,0.0,90,0.00,,,0.00,Wunderground v.1.15,2013-09-26 11:57:00,
2013-09-26 07:03:00,59.0,56.4,29.46,ESE,106,0.0,0.0,91,0.00,,,0.00,Wunderground v.1.15,2013-09-26 12:03:00,
2013-09-26 07:08:00,59.1,56.5,29.46,ESE,106,0.0,0.0,91,0.00,,,0.00,Wunderground v.1.15,2013-09-26 12:08:00,
2013-09-26 07:13:00,58.9,56.3,29.46,ESE,106,0.0,0.0,91,0.00,,,0.00,Wunderground v.1.15,2013-09-26 12:13:00,
2013-09-26 07:19:00,58.9,56.6,29.46,ESE,106,0.0,0.0,92,0.00,,,0.00,Wunderground v.1.15,2013-09-26 12:19:00,
2013-09-26 07:24:00,58.9,56.6,29.47,ESE,106,0.0,0.0,92,0.00,,,0.00,Wunderground v.1.15,2013-09-26 12:24:00,
2013-09-26 07:30:00,58.9,56.6,29.47,ESE,106,0.0,0.0,92,0.00,,,0.00,Wunderground v.1.15,2013-09-26 12:30:00,
2013-09-26 07:36:00,58.9,56.6,29.47,ESE,106,0.0,0.0,92,0.00,,,0.00,Wunderground v.1.15,2013-09-26 12:36:00,
2013-09-26 07:41:00,59.1,56.8,29.47,ESE,106,0.0,0.0,92,0.00,,,0.00,Wunderground v.1.15,2013-09-26 12:41:00,
2013-09-26 07:46:00,59.3,56.7,29.47,ESE,106,0.0,0.0,91,0.00,,,0.00,Wunderground v.1.15,2013-09-26 12:46:00,
2013-09-26 07:52:00,59.3,57.0,29.47,ESE,106,0.0,0.0,92,0.00,,,0.00,Wunderground v.1.15,2013-09-26 12:52:00,
2013-09-26 07:57:00,59.5,57.2,29.48,ESE,106,0.0,0.0,92,0.00,,,0.00,Wunderground v.1.15,2013-09-26 12:57:00,
2013-09-26 08:02:00,59.7,57.7,29.48,ESE,106,0.0,0.0,93,0.00,,,0.00,Wunderground v.1.15,2013-09-26 13:02:00,
2013-09-26 08:08:00,59.9,57.9,29.48,ESE,106,0.0,1.0,93,0.00,,,0.00,Wunderground v.1.15,2013-09-26 13:08:00,
2013-09-26 08:13:00,60.3,58.3,29.48,ESE,106,0.0,0.0,93,0.00,,,0.00,Wunderground v.1.15,2013-09-26 13:13:00,
2013-09-26 08:18:00,60.7,58.7,29.48,ESE,106,1.0,1.0,93,0.00,,,0.00,Wunderground v.1.15,2013-09-26 13:18:00,
2013-09-26 08:24:00,61.1,58.8,29.48,ESE,106,1.0,1.0,92,0.00,,,0.00,Wunderground v.1.15,2013-09-26 13:24:00,
2013-09-26 08:29:00,61.5,59.2,29.48,ESE,106,1.0,1.0,92,0.00,,,0.00,Wunderground v.1.15,2013-09-26 13:29:00,
2013-09-26 08:34:00,61.8,59.5,29.48,ESE,106,1.0,1.0,92,0.00,,,0.00,Wunderground v.1.15,2013-09-26 13:34:00,
2013-09-26 08:40:00,-999.9,-99.9,29.48,ESE,106,0.0,0.0,91,0.00,,,0.00,Wunderground v.1.15,2013-09-26 13:40:00,
2013-09-26 08:45:00,62.7,60.0,29.48,ESE,106,0.0,6.0,91,0.00,,,0.00,Wunderground v.1.15,2013-09-26 13:45:00,
2013-09-26 08:50:00,63.4,60.4,29.48,ESE,106,1.0,1.0,90,0.00,,,0.00,Wunderground v.1.15,2013-09-26 13:50:00,
2013-09-26 08:56:00,63.8,60.5,29.48,ESE,106,1.0,1.0,89,0.00,,,0.00,Wunderground v.1.15,2013-09-26 13:56:00,
2013-09-26 09:01:00,64.2,60.9,29.48,ESE,106,0.0,0.0,89,0.00,,,0.00,Wunderground v.1.15,2013-09-26 14:01:00,
2013-09-26 09:07:00,64.8,60.5,29.48,ESE,106,0.0,0.0,86,0.00,,,0.00,Wunderground v.1.15,2013-09-26 14:07:00,
2013-09-26 09:21:00,66.3,61.7,29.49,ESE,106,0.0,0.0,85,0.00,,,0.00,Wunderground v.1.15,2013-09-26 14:21:00,
2013-09-26 09:27:00,67.0,61.7,29.48,ESE,106,0.0,1.0,83,0.00,,,0.00,Wunderground v.1.15,2013-09-26 14:27:00,
2013-09-26 09:32:00,67.7,62.3,29.48,ESE,106,0.0,0.0,83,0.00,,,0.00,Wunderground v.1.15,2013-09-26 14:32:00,
2013-09-26 09:38:00,68.5,62.8,29.48,ESE,106,0.0,0.0,82,0.00,,,0.00,Wunderground v.1.15,2013-09-26 14:38:00,
2013-09-26 09:43:00,69.2,63.1,29.49,ESE,106,0.0,0.0,81,0.00,,,0.00,Wunderground v.1.15,2013-09-26 14:43:00,
2013-09-26 09:48:00,70.0,63.5,29.49,ESE,106,0.0,0.0,80,0.00,,,0.00,Wunderground v.1.15,2013-09-26 14:48:00,
2013-09-26 09:54:00,70.8,63.6,29.49,ESE,106,0.0,0.0,78,0.00,,,0.00,Wunderground v.1.15,2013-09-26 14:54:00,
2013-09-26 09:59:00,71.6,64.0,29.49,ESE,106,0.0,0.0,77,0.00,,,0.00,Wunderground v.1.15,2013-09-26 14:59:00,
2013-09-26 10:04:00,72.2,64.2,29.49,ESE,106,0.0,0.0,76,0.00,,,0.00,Wunderground v.1.15,2013-09-26 15:04:00,
2013-09-26 10:09:00,72.7,64.7,29.49,ESE,106,0.0,0.0,76,0.00,,,0.00,Wunderground v.1.15,2013-09-26 15:09:00,
2013-09-26 10:30:00,74.2,64.6,29.49,ESE,106,0.0,0.0,72,0.00,,,0.00,Wunderground v.1.15,2013-09-26 15:30:00,
2013-09-26 10:36:00,74.5,65.3,29.49,ESE,106,0.0,2.0,73,0.00,,,0.00,Wunderground v.1.15,2013-09-26 15:36:00,
2013-09-26 10:41:00,75.0,65.4,29.49,ESE,106,1.0,1.0,72,0.00,,,0.00,Wunderground v.1.15,2013-09-26 15:41:00,
2013-09-26 10:46:00,75.3,65.6,29.49,ESE,106,1.0,1.0,72,0.00,,,0.00,Wunderground v.1.15,2013-09-26 15:46:00,
2013-09-26 10:52:00,75.7,65.6,29.49,ESE,106,1.0,1.0,71,0.00,,,0.00,Wunderground v.1.15,2013-09-26 15:52:00,
2013-09-26 10:57:00,76.0,65.5,29.49,ESE,106,0.0,1.0,70,0.00,,,0.00,Wunderground v.1.15,2013-09-26 15:57:00,
2013-09-26 11:02:00,76.6,-99.9,29.49,ESE,106,0.0,2.0,255,0.00,,,0.00,Wunderground v.1.15,2013-09-26 16:02:00,
2013-09-26 11:08:00,77.0,66.0,29.49,ESE,106,1.0,6.0,69,0.00,,,0.00,Wunderground v.1.15,2013-09-26 16:08:00,
2013-09-26 11:13:00,77.4,66.8,29.49,ESE,106,1.0,1.0,70,0.00,,,0.00,Wunderground v.1.15,2013-09-26 16:13:00,
2013-09-26 11:18:00,78.0,66.6,29.49,ESE,106,0.0,2.0,68,0.00,,,0.00,Wunderground v.1.15,2013-09-26 16:18:00,
2013-09-26 11:24:00,-999.9,-99.9,29.49,ESE,106,0.0,0.0,68,0.00,,,0.00,Wunderground v.1.15,2013-09-26 16:24:00,
2013-09-26 11:29:00,79.1,67.2,29.49,ESE,106,0.0,2.0,67,0.00,,,0.00,Wunderground v.1.15,2013-09-26 16:29:00,
2013-09-26 11:35:00,79.5,66.7,29.49,ESE,106,1.0,1.0,65,0.00,,,0.00,Wunderground v.1.15,2013-09-26 16:35:00,
2013-09-26 11:40:00,79.8,67.0,29.49,ESE,106,1.0,1.0,65,0.00,,,0.00,Wunderground v.1.15,2013-09-26 16:40:00,
2013-09-26 11:46:00,80.2,66.9,29.49,ESE,106,1.0,7.0,64,0.00,,,0.00,Wunderground v.1.15,2013-09-26 16:46:00,
2013-09-26 11:51:00,80.3,66.6,29.49,ESE,115,1.0,7.0,63,0.00,,,0.00,Wunderground v.1.15,2013-09-26 16:51:00,
2013-09-26 11:56:00,80.3,64.7,29.48,SSE,148,2.0,7.0,59,0.00,,,0.00,Wunderground v.1.15,2013-09-26 16:56:00,
2013-09-26 12:02:00,80.4,64.8,29.49,South,170,3.0,5.0,59,0.00,,,0.00,Wunderground v.1.15,2013-09-26 17:02:00,
2013-09-26 12:07:00,80.6,65.4,29.49,South,177,3.0,7.0,60,0.00,,,0.00,Wunderground v.1.15,2013-09-26 17:07:00,
2013-09-26 12:13:00,80.7,64.5,29.49,SSE,158,3.0,8.0,58,0.00,,,0.00,Wunderground v.1.15,2013-09-26 17:13:00,
2013-09-26 12:19:00,80.7,64.5,29.48,SSE,150,4.0,9.0,58,0.00,,,0.00,Wunderground v.1.15,2013-09-26 17:19:00,
2013-09-26 12:24:00,81.1,64.9,29.48,SSE,147,2.0,4.0,58,0.00,,,0.00,Wunderground v.1.15,2013-09-26 17:24:00,
2013-09-26 12:29:00,81.3,64.6,29.48,SSE,154,2.0,4.0,57,0.00,,,0.00,Wunderground v.1.15,2013-09-26 17:29:00,
2013-09-26 12:35:00,81.3,65.6,29.48,ESE,122,3.0,10.0,59,0.00,,,0.00,Wunderground v.1.15,2013-09-26 17:35:00,
2013-09-26 12:47:00,82.0,65.3,29.48,ESE,121,2.0,2.0,57,0.00,,,0.00,Wunderground v.1.15,2013-09-26 17:47:00,
2013-09-26 12:52:00,82.1,65.4,29.47,ESE,120,1.0,1.0,57,0.00,,,0.00,Wunderground v.1.15,2013-09-26 17:52:00,
2013-09-26 12:59:00,-999.9,-99.9,29.47,ESE,108,1.0,6.0,56,0.00,,,0.00,Wunderground v.1.15,2013-09-26 17:59:00,
2013-09-26 13:04:00,81.9,65.7,29.47,ESE,113,2.0,6.0,58,0.00,,,0.00,Wunderground v.1.15,2013-09-26 18:04:00,
2013-09-26 13:10:00,81.8,-99.9,29.47,ESE,113,1.0,1.0,255,0.00,,,0.00,Wunderground v.1.15,2013-09-26 18:10:00,
2013-09-26 13:15:00,-999.9,-99.9,29.47,ESE,110,1.0,7.0,59,0.00,,,0.00,Wunderground v.1.15,2013-09-26 18:15:00,
2013-09-26 13:20:00,81.8,65.6,29.47,ESE,110,2.0,2.0,58,0.00,,,0.00,Wunderground v.1.15,2013-09-26 18:20:00,
2013-09-26 13:26:00,81.9,66.2,29.46,ESE,110,1.0,2.0,59,0.00,,,0.00,Wunderground v.1.15,2013-09-26 18:26:00,
2013-09-26 13:31:00,82.3,66.5,29.47,ESE,110,1.0,1.0,59,0.00,,,0.00,Wunderground v.1.15,2013-09-26 18:31:00,
2013-09-26 13:36:00,82.5,64.7,29.46,ESE,110,1.0,2.0,55,0.00,,,0.00,Wunderground v.1.15,2013-09-26 18:36:00,
2013-09-26 13:42:00,82.7,64.9,29.46,SE,146,1.0,1.0,55,0.00,,,0.00,Wunderground v.1.15,2013-09-26 18:42:00,
2013-09-26 13:47:00,82.8,63.4,29.46,SE,142,2.0,5.0,52,0.00,,,0.00,Wunderground v.1.15,2013-09-26 18:47:00,
2013-09-26 13:53:00,82.8,66.0,29.46,SE,135,3.0,3.0,57,0.00,,,0.00,Wunderground v.1.15,2013-09-26 18:53:00,
2013-09-26 13:59:00,82.5,64.7,29.46,SE,135,1.0,4.0,55,0.00,,,0.00,Wunderground v.1.15,2013-09-26 18:59:00,
2013-09-26 14:04:00,82.5,64.2,29.45,SE,134,1.0,1.0,54,0.00,,,0.00,Wunderground v.1.15,2013-09-26 19:04:00,
2013-09-26 14:10:00,82.2,63.4,29.46,SE,134,2.0,2.0,53,0.00,,,0.00,Wunderground v.1.15,2013-09-26 19:10:00,
2013-09-26 14:15:00,82.3,64.0,29.45,SE,134,2.0,7.0,54,0.00,,,0.00,Wunderground v.1.15,2013-09-26 19:15:00,
2013-09-26 14:20:00,83.1,63.7,29.45,SE,134,2.0,7.0,52,0.00,,,0.00,Wunderground v.1.15,2013-09-26 19:20:00,
2013-09-26 14:26:00,83.4,64.5,29.45,SE,139,3.0,8.0,53,0.00,,,0.00,Wunderground v.1.15,2013-09-26 19:26:00,
2013-09-26 14:31:00,83.6,64.1,29.45,SE,139,2.0,3.0,52,0.00,,,0.00,Wunderground v.1.15,2013-09-26 19:31:00,
2013-09-26 14:36:00,83.4,64.5,29.45,SE,141,1.0,7.0,53,0.00,,,0.00,Wunderground v.1.15,2013-09-26 19:36:00,
2013-09-26 14:42:00,83.3,66.0,29.45,SE,128,2.0,5.0,56,0.00,,,0.00,Wunderground v.1.15,2013-09-26 19:42:00,
2013-09-26 14:47:00,83.9,-99.9,29.45,SE,128,1.0,9.0,255,0.00,,,0.00,Wunderground v.1.15,2013-09-26 19:47:00,
2013-09-26 14:53:00,84.2,65.8,29.45,ESE,115,1.0,1.0,54,0.00,,,0.00,Wunderground v.1.15,2013-09-26 19:53:00,
2013-09-26 14:58:00,84.2,66.3,29.45,ESE,103,2.0,7.0,55,0.00,,,0.00,Wunderground v.1.15,2013-09-26 19:58:00,
2013-09-26 15:03:00,84.1,66.2,29.44,ESE,103,2.0,2.0,55,0.00,,,0.00,Wunderground v.1.15,2013-09-26 20:03:00,
2013-09-26 15:09:00,83.4,65.5,29.44,East,94,2.0,9.0,55,0.00,,,0.00,Wunderground v.1.15,2013-09-26 20:09:00,
2013-09-26 15:15:00,83.4,65.5,29.45,East,90,2.0,6.0,55,0.00,,,0.00,Wunderground v.1.15,2013-09-26 20:15:00,
2013-09-26 15:20:00,83.2,65.9,29.44,East,90,3.0,6.0,56,0.00,,,0.00,Wunderground v.1.15,2013-09-26 20:20:00,
2013-09-26 15:25:00,83.4,66.1,29.44,East,95,3.0,6.0,56,0.00,,,0.00,Wunderground v.1.15,2013-09-26 20:25:00,
2013-09-26 15:31:00,83.4,66.1,29.44,East,92,2.0,2.0,56,0.00,,,0.00,Wunderground v.1.15,2013-09-26 20:31:00,
2013-09-26 15:36:00,83.4,65.0,29.44,East,88,2.0,10.0,54,0.00,,,0.00,Wunderground v.1.15,2013-09-26 20:36:00,
2013-09-26 15:48:00,83.6,64.7,29.44,East,90,1.0,6.0,53,0.00,,,0.00,Wunderground v.1.15,2013-09-26 20:48:00,
2013-09-26 15:53:00,83.7,65.3,29.44,East,83,1.0,1.0,54,0.00,,,0.00,Wunderground v.1.15,2013-09-26 20:53:00,
2013-09-26 16:01:00,83.4,65.0,29.44,ENE,78,2.0,11.0,54,0.00,,,0.00,Wunderground v.1.15,2013-09-26 21:01:00,
2013-09-26 16:16:00,83.4,65.0,29.44,East,79,2.0,2.0,54,0.00,,,0.00,Wunderground v.1.15,2013-09-26 21:16:00,
2013-09-26 16:21:00,83.2,64.8,29.44,East,79,1.0,3.0,54,0.00,,,0.00,Wunderground v.1.15,2013-09-26 21:21:00,
2013-09-26 16:27:00,83.1,64.7,29.44,East,80,1.0,5.0,54,0.00,,,0.00,Wunderground v.1.15,2013-09-26 21:27:00,
2013-09-26 16:32:00,82.9,65.1,29.44,ENE,77,1.0,1.0,55,0.00,,,0.00,Wunderground v.1.15,2013-09-26 21:32:00,
2013-09-26 16:38:00,82.5,64.7,29.44,ENE,77,1.0,3.0,55,0.00,,,0.00,Wunderground v.1.15,2013-09-26 21:38:00,
2013-09-26 16:43:00,82.3,64.5,29.44,East,100,1.0,10.0,55,0.00,,,0.00,Wunderground v.1.15,2013-09-26 21:43:00,
2013-09-26 16:48:00,82.0,64.2,29.44,East,96,2.0,10.0,55,0.00,,,0.00,Wunderground v.1.15,2013-09-26 21:48:00,
2013-09-26 16:54:00,81.8,64.1,29.44,East,90,1.0,2.0,55,0.00,,,0.00,Wunderground v.1.15,2013-09-26 21:54:00,
2013-09-26 16:59:00,81.9,64.1,29.44,East,89,1.0,2.0,55,0.00,,,0.00,Wunderground v.1.15,2013-09-26 21:59:00,
2013-09-26 17:05:00,81.7,64.0,29.44,East,88,0.0,1.0,55,0.00,,,0.00,Wunderground v.1.15,2013-09-26 22:05:00,
2013-09-26 17:10:00,82.0,64.2,29.44,East,88,0.0,0.0,55,0.00,,,0.00,Wunderground v.1.15,2013-09-26 22:10:00,
2013-09-26 17:15:00,-999.9,-99.9,29.44,East,90,1.0,5.0,255,0.00,,,0.00,Wunderground v.1.15,2013-09-26 22:15:00,
2013-09-26 17:27:00,81.7,64.0,29.44,East,90,1.0,1.0,55,0.00,,,0.00,Wunderground v.1.15,2013-09-26 22:27:00,
2013-09-26 17:32:00,81.5,63.8,29.44,East,89,1.0,1.0,55,0.00,,,0.00,Wunderground v.1.15,2013-09-26 22:32:00,
2013-09-26 17:38:00,81.4,63.7,29.44,East,90,1.0,2.0,55,0.00,,,0.00,Wunderground v.1.15,2013-09-26 22:38:00,
2013-09-26 17:43:00,81.3,64.1,29.44,East,97,1.0,1.0,56,0.00,,,0.00,Wunderground v.1.15,2013-09-26 22:43:00,
2013-09-26 17:48:00,81.1,63.9,29.44,East,97,1.0,1.0,56,0.00,,,0.00,Wunderground v.1.15,2013-09-26 22:48:00,
2013-09-26 17:54:00,80.7,63.5,29.45,East,97,1.0,5.0,56,0.00,,,0.00,Wunderground v.1.15,2013-09-26 22:54:00,
2013-09-26 17:59:00,80.3,63.2,29.45,East,97,1.0,5.0,56,0.00,,,0.00,Wunderground v.1.15,2013-09-26 22:59:00,
2013-09-26 18:04:00,80.0,63.4,29.45,East,97,1.0,5.0,57,0.00,,,0.00,Wunderground v.1.15,2013-09-26 23:04:00,
2013-09-26 18:10:00,-999.9,-99.9,29.45,East,101,2.0,8.0,56,0.00,,,0.00,Wunderground v.1.15,2013-09-26 23:10:00,
2013-09-26 18:15:00,79.3,63.2,29.45,ESE,104,2.0,8.0,58,0.00,,,0.00,Wunderground v.1.15,2013-09-26 23:15:00,
2013-09-26 18:20:00,79.1,63.1,29.45,East,97,1.0,1.0,58,0.00,,,0.00,Wunderground v.1.15,2013-09-26 23:20:00,
2013-09-26 18:26:00,78.8,62.8,29.45,East,97,1.0,1.0,58,0.00,,,0.00,Wunderground v.1.15,2013-09-26 23:26:00,
2013-09-26 18:31:00,78.5,62.5,29.45,East,101,1.0,7.0,58,0.00,,,0.00,Wunderground v.1.15,2013-09-26 23:31:00,
2013-09-26 18:36:00,78.3,62.3,29.45,East,101,1.0,7.0,58,0.00,,,0.00,Wunderground v.1.15,2013-09-26 23:36:00,
2013-09-26 18:41:00,78.0,62.5,29.45,East,101,1.0,7.0,59,0.00,,,0.00,Wunderground v.1.15,2013-09-26 23:41:00,
2013-09-26 18:47:00,77.8,62.8,29.45,ESE,102,1.0,7.0,60,0.00,,,0.00,Wunderground v.1.15,2013-09-26 23:47:00,
2013-09-26 18:53:00,77.5,62.5,29.45,ESE,102,1.0,1.0,60,0.00,,,0.00,Wunderground v.1.15,2013-09-26 23:53:00,
2013-09-26 18:59:00,77.1,62.1,29.45,ESE,102,1.0,4.0,60,0.00,,,0.00,Wunderground v.1.15,2013-09-26 23:59:00,
2013-09-26 19:05:00,76.8,61.9,29.45,ESE,102,1.0,6.0,60,0.00,,,0.00,Wunderground v.1.15,2013-09-27 00:05:00,
2013-09-26 19:10:00,76.7,61.8,29.45,ESE,105,1.0,1.0,60,0.00,,,0.00,Wunderground v.1.15,2013-09-27 00:10:00,
2013-09-26 19:16:00,76.4,61.5,29.45,ESE,105,1.0,5.0,60,0.00,,,0.00,Wunderground v.1.15,2013-09-27 00:16:00,
2013-09-26 19:21:00,76.3,61.9,29.45,ESE,105,1.0,1.0,61,0.00,,,0.00,Wunderground v.1.15,2013-09-27 00:21:00,
2013-09-26 19:26:00,76.2,61.8,29.45,ESE,105,1.0,2.0,61,0.00,,,0.00,Wunderground v.1.15,2013-09-27 00:26:00,
2013-09-26 19:32:00,76.1,61.2,29.45,ESE,105,1.0,1.0,60,0.00,,,0.00,Wunderground v.1.15,2013-09-27 00:32:00,
2013-09-26 19:38:00,75.7,61.3,29.45,ESE,105,1.0,4.0,61,0.00,,,0.00,Wunderground v.1.15,2013-09-27 00:38:00,
2013-09-26 19:44:00,75.5,61.1,29.45,ESE,105,1.0,1.0,61,0.00,,,0.00,Wunderground v.1.15,2013-09-27 00:44:00,
2013-09-26 19:49:00,75.3,60.9,29.45,ESE,105,1.0,1.0,61,0.00,,,0.00,Wunderground v.1.15,2013-09-27 00:49:00,
2013-09-26 19:55:00,75.2,61.3,29.45,ESE,105,1.0,7.0,62,0.00,,,0.00,Wunderground v.1.15,2013-09-27 00:55:00,
2013-09-26 20:00:00,75.1,61.2,29.45,ESE,105,1.0,1.0,62,0.00,,,0.00,Wunderground v.1.15,2013-09-27 01:00:00,
2013-09-26 20:06:00,75.1,60.7,29.46,ESE,105,0.0,1.0,61,0.00,,,0.00,Wunderground v.1.15,2013-09-27 01:06:00,
2013-09-26 20:11:00,74.7,60.8,29.46,ESE,105,0.0,0.0,62,0.00,,,0.00,Wunderground v.1.15,2013-09-27 01:11:00,
2013-09-26 20:16:00,74.5,61.1,29.46,ESE,105,0.0,1.0,63,0.00,,,0.00,Wunderground v.1.15,2013-09-27 01:16:00,
2013-09-26 20:22:00,74.3,61.3,29.46,ESE,105,0.0,0.0,64,0.00,,,0.00,Wunderground v.1.15,2013-09-27 01:22:00,
2013-09-26 20:28:00,74.1,61.6,29.46,ESE,105,0.0,1.0,65,0.00,,,0.00,Wunderground v.1.15,2013-09-27 01:28:00,
2013-09-26 20:34:00,73.9,61.4,29.47,ESE,105,0.0,0.0,65,0.00,,,0.00,Wunderground v.1.15,2013-09-27 01:34:00,
2013-09-26 20:39:00,73.7,61.2,29.46,ESE,105,0.0,2.0,65,0.00,,,0.00,Wunderground v.1.15,2013-09-27 01:39:00,
2013-09-26 20:44:00,73.5,61.0,29.46,ESE,105,0.0,0.0,65,0.00,,,0.00,Wunderground v.1.15,2013-09-27 01:44:00,
2013-09-26 20:50:00,73.4,61.3,29.46,ESE,105,0.0,0.0,66,0.00,,,0.00,Wunderground v.1.15,2013-09-27 01:50:00,
2013-09-26 20:56:00,73.2,61.2,29.47,ESE,105,1.0,1.0,66,0.00,,,0.00,Wunderground v.1.15,2013-09-27 01:56:00,
2013-09-26 21:01:00,73.1,61.1,29.47,ESE,105,0.0,0.0,66,0.00,,,0.00,Wunderground v.1.15,2013-09-27 02:01:00,
2013-09-26 21:06:00,73.0,61.0,29.47,ESE,105,0.0,0.0,66,0.00,,,0.00,Wunderground v.1.15,2013-09-27 02:06:00,
2013-09-26 21:12:00,72.9,60.9,29.47,ESE,105,1.0,1.0,66,0.00,,,0.00,Wunderground v.1.15,2013-09-27 02:12:00,
2013-09-26 21:17:00,72.9,60.9,29.47,ESE,105,1.0,2.0,66,0.00,,,0.00,Wunderground v.1.15,2013-09-27 02:17:00,
2013-09-26 21:23:00,72.9,60.9,29.47,ESE,105,0.0,5.0,66,0.00,,,0.00,Wunderground v.1.15,2013-09-27 02:23:00,
2013-09-26 21:29:00,72.8,60.8,29.47,ESE,105,1.0,5.0,66,0.00,,,0.00,Wunderground v.1.15,2013-09-27 02:29:00,
2013-09-26 21:34:00,73.0,61.0,29.47,ESE,105,1.0,1.0,66,0.00,,,0.00,Wunderground v.1.15,2013-09-27 02:34:00,
2013-09-26 21:40:00,72.8,60.8,29.47,ESE,105,1.0,1.0,66,0.00,,,0.00,Wunderground v.1.15,2013-09-27 02:40:00,
2013-09-26 21:46:00,72.8,60.8,29.48,ESE,105,1.0,8.0,66,0.00,,,0.00,Wunderground v.1.15,2013-09-27 02:46:00,
2013-09-26 21:51:00,72.8,60.8,29.48,ESE,105,1.0,5.0,66,0.00,,,0.00,Wunderground v.1.15,2013-09-27 02:51:00,
2013-09-26 21:57:00,72.6,61.0,29.48,ESE,105,1.0,5.0,67,0.00,,,0.00,Wunderground v.1.15,2013-09-27 02:57:00,
2013-09-26 22:02:00,72.4,60.8,29.48,ESE,105,1.0,1.0,67,0.00,,,0.00,Wunderground v.1.15,2013-09-27 03:02:00,
2013-09-26 22:08:00,72.2,61.0,29.48,ESE,105,1.0,4.0,68,0.00,,,0.00,Wunderground v.1.15,2013-09-27 03:08:00,
2013-09-26 22:13:00,72.2,60.6,29.48,ESE,105,1.0,1.0,67,0.00,,,0.00,Wunderground v.1.15,2013-09-27 03:13:00,
2013-09-26 22:18:00,72.1,60.5,29.48,ESE,105,0.0,6.0,67,0.00,,,0.00,Wunderground v.1.15,2013-09-27 03:18:00,
2013-09-26 22:24:00,72.1,60.1,29.48,ESE,105,1.0,5.0,66,0.00,,,0.00,Wunderground v.1.15,2013-09-27 03:24:00,
2013-09-26 22:29:00,72.2,59.8,29.49,ESE,105,0.0,5.0,65,0.00,,,0.00,Wunderground v.1.15,2013-09-27 03:29:00,
2013-09-26 22:35:00,72.2,59.8,29.48,ESE,105,0.0,1.0,65,0.00,,,0.00,Wunderground v.1.15,2013-09-27 03:35:00,
2013-09-26 22:40:00,72.1,59.7,29.49,ESE,105,0.0,0.0,65,0.00,,,0.00,Wunderground v.1.15,2013-09-27 03:40:00,
2013-09-26 22:46:00,72.0,59.6,29.49,ESE,105,0.0,0.0,65,0.00,,,0.00,Wunderground v.1.15,2013-09-27 03:46:00,
2013-09-26 22:51:00,71.9,59.5,29.49,ESE,105,0.0,0.0,65,0.00,,,0.00,Wunderground v.1.15,2013-09-27 03:51:00,
2013-09-26 22:57:00,71.7,59.3,29.49,ESE,105,0.0,0.0,65,0.00,,,0.00,Wunderground v.1.15,2013-09-27 03:57:00,
2013-09-26 23:06:00,71.4,59.0,29.49,ESE,105,0.0,0.0,65,0.00,,,0.00,Wunderground v.1.15,2013-09-27 04:06:00,
2013-09-26 23:12:00,71.4,-99.9,29.49,ESE,105,0.0,0.0,255,0.00,,,0.00,Wunderground v.1.15,2013-09-27 04:12:00,
2013-09-26 23:17:00,71.2,58.8,29.49,ESE,105,0.0,4.0,65,0.00,,,0.00,Wunderground v.1.15,2013-09-27 04:17:00,
2013-09-26 23:23:00,71.0,59.1,29.49,ESE,105,0.0,0.0,66,0.00,,,0.00,Wunderground v.1.15,2013-09-27 04:23:00,
2013-09-26 23:33:00,70.8,58.9,29.50,ESE,105,0.0,2.0,66,0.00,,,0.00,Wunderground v.1.15,2013-09-27 04:33:00,
2013-09-26 23:39:00,70.8,58.9,29.50,ESE,105,0.0,2.0,66,0.00,,,0.00,Wunderground v.1.15,2013-09-27 04:39:00,
2013-09-26 23:44:00,70.7,58.8,29.50,ESE,105,0.0,2.0,66,0.00,,,0.00,Wunderground v.1.15,2013-09-27 04:44:00,
2013-09-26 23:50:00,70.7,58.8,29.50,ESE,105,1.0,2.0,66,0.00,,,0.00,Wunderground v.1.15,2013-09-27 04:50:00,
2013-09-26 23:55:00,70.5,58.6,29.50,ESE,105,0.0,1.0,66,0.00,,,0.00,Wunderground v.1.15,2013-09-27 04:55:00,